This is the latest recevied weather packets stored in our database for station/object DC4AT. If no packets are shown the sender has not sent any weather packets the latest 10 day(s).
| Time | Temp. | Humidity | Pressure | Rain* | Wind** | Luminosity | Snow |
|---|---|---|---|---|---|---|---|
| 1787615865 | 11.11° C | 84% | 1018 hPa | 0 mm | - | 0 W/m² | - |
| 1787615265 | 11.11° C | 83% | 1018.1 hPa | 0 mm | - | 0 W/m² | - |
| 1787614665 | 11.67° C | 82% | 1018.3 hPa | 0 mm | - | 0 W/m² | - |
| 1787614065 | 11.67° C | 81% | 1018.3 hPa | 0 mm | - | 0 W/m² | - |
| 1787613465 | 12.22° C | 81% | 1018.4 hPa | 0 mm | - | 0 W/m² | - |
| 1787612865 | 12.22° C | 81% | 1018.4 hPa | 0 mm | - | 0 W/m² | - |
| 1787612265 | 12.22° C | 81% | 1018.4 hPa | 0 mm | - | 0 W/m² | - |
| 1787611665 | 12.22° C | 80% | 1018.6 hPa | 0 mm | - | 0 W/m² | - |
| 1787611065 | 12.22° C | 80% | 1018.6 hPa | 0 mm | - | 0 W/m² | - |
| 1787610465 | 12.78° C | 80% | 1018.8 hPa | 0 mm | - | 0 W/m² | - |
| 1787609866 | 12.78° C | 79% | 1018.9 hPa | 0 mm | - | 0 W/m² | - |
| 1787609265 | 12.78° C | 79% | 1019.2 hPa | 0 mm | - | 0 W/m² | - |
| 1787608666 | 12.78° C | 78% | 1019.2 hPa | 0 mm | - | 0 W/m² | - |
| 1787608066 | 13.33° C | 78% | 1019.1 hPa | 0 mm | - | 0 W/m² | - |
| 1787607466 | 13.33° C | 78% | 1019.4 hPa | 0 mm | - | 0 W/m² | - |
| 1787606866 | 12.78° C | 79% | 1019.4 hPa | 0 mm | - | 0 W/m² | - |
| 1787606266 | 12.78° C | 80% | 1019.4 hPa | 0 mm | - | 0 W/m² | - |
| 1787605666 | 12.78° C | 79% | 1019.5 hPa | 0 mm | - | 0 W/m² | - |
| 1787605066 | 12.78° C | 78% | 1019.6 hPa | 0 mm | - | 0 W/m² | - |
| 1787604466 | 12.78° C | 78% | 1019.7 hPa | 0 mm | - | 0 W/m² | - |
| 1787603866 | 13.33° C | 75% | 1019.5 hPa | 0 mm | - | 0 W/m² | - |
| 1787603266 | 13.89° C | 74% | 1019.7 hPa | 0 mm | - | 0 W/m² | - |
| 1787602666 | 14.44° C | 73% | 1019.7 hPa | 0 mm | - | 0 W/m² | - |
| 1787602066 | 15° C | 72% | 1019.6 hPa | 0 mm | - | 0 W/m² | - |
| 1787601466 | 15° C | 71% | 1019.5 hPa | 0 mm | - | 0 W/m² | - |
* Rain latest hour (hover to see other rain measurements)
** Current wind speed in m/s (hover to see current wind gust speed)